Torna al catalogo

DMSP 5D-2 F13 DEB

AttivoSSO
NORAD 40465·DEBRIS·🇺🇸 United States

Lanciato Mar 24, 1995 da Vandenberg Space Force Base

Loading…

Prossimi Passaggi (prossime 24 ore)

TLE

AggiornatoSource: Space-Track

Epoca: Sep 13, 2026, 07:17 UTC

1 40465U 95015BH  26256.30375718  .00002254  00000-0  95509-3 0  9998
2 40465  98.9598 286.3747 0039689 177.1177 183.0238 14.26040635592846

Traccia DMSP 5D-2 F13 DEB in tempo reale con AllMySat

Download on the App Store